Location: Grand Canyon Star Party (South Rim)
(36.0641°N, 112.1172°W)
Time: 03:08:51
(UTC-07:00)

ISS - Visible Passes

Search period start: 18 January 2018 00:00
Search period end: 28 January 2018 00:00
Orbit: 402 x 407 km, 51.6° (Epoch: 18 January)

Date Brightness Start Highest point End Pass type
(mag) Time Alt. Az. Time Alt. Az. Time Alt. Az.
18 Jan -2.0 05:46:11 24° S 05:46:11 24° S 05:47:45 10° SSE visible
21 Jan -0.9 19:42:57 10° S 19:43:01 10° S 19:43:01 10° S visible
22 Jan -1.6 18:52:02 10° SSE 18:53:27 13° SE 18:53:27 13° SE visible
23 Jan -2.9 19:34:11 10° SW 19:36:29 43° SW 19:36:29 43° SW visible
24 Jan -3.0 18:42:11 10° SSW 18:45:09 34° SE 18:46:44 21° E visible
24 Jan -0.4 20:19:05 10° W 20:19:25 12° W 20:19:25 12° W visible
25 Jan -2.8 19:26:09 10° WSW 19:29:12 38° NW 19:29:34 36° NNW visible
26 Jan -3.8 18:33:34 10° SW 18:36:48 80° NW 18:39:38 13° NE visible
26 Jan -0.5 20:12:18 10° NW 20:12:19 10° NW 20:12:19 10° NW visible
27 Jan -1.6 19:18:44 10° WNW 19:21:06 19° NNW 19:22:17 16° N visible
